FW4650 Weather Reports


time (UTC)temp
F
wind
direction
speed
knots
gust
knots
rain 1hr
in
rain 24hr
in
rain mn
in
humidity
%
barometer
mb
20260506173515 54 356 14.8 20.0 0.00 0.00 0.00
20260506172515 54 1 13.0 17.4 0.00 0.00 0.00
20260506171515 54 1 13.9 19.1 0.00 0.00 0.00
20260506170535 54 2 14.8 20.0 0.00 0.00 0.00
20260506165515 54 359 16.5 21.7 0.00 0.00 0.00
20260506164515 55 2 14.8 19.1 0.00 0.00 0.00
20260506163515 55 6 17.4 21.7 0.00 0.00 0.00
20260506162515 56 3 15.6 20.9 0.00 0.00 0.00
20260506161515 55 1 16.5 20.9 0.00 0.00 0.00
20260506160515 55 2 15.6 19.1 0.00 0.00 0.00
20260506155515 55 359 15.6 20.9 0.00 0.00 0.00
20260506154515 55 2 14.8 20.9 0.00 0.00 0.00
20260506153515 55 356 16.5 20.9 0.00 0.00 0.00
20260506152515 56 6 16.5 20.9 0.00 0.00 0.00
20260506151515 57 1 16.5 21.7 0.00 0.00 0.00
20260506150515 57 0 16.5 20.9 0.00 0.00 0.00
20260506145515 57 3 15.6 19.1 0.00 0.00 0.00
20260506144515 56 1 16.5 23.5 0.00 0.00 0.00
20260506143515 57 8 15.6 20.0 0.00 0.00 0.00
20260506142515 57 3 16.5 21.7 0.00 0.00 0.00
20260506141515 57 6 15.6 22.6 0.00 0.00 0.00
20260506140515 57 7 16.5 20.9 0.00 0.00 0.00
20260506135535 58 3 14.8 20.9 0.00 0.00 0.00
20260506134515 57 7 17.4 21.7 0.00 0.00 0.00
20260506133515 58 6 17.4 22.6 0.00 0.00 0.00
20260506132515 58 7 15.6 21.7 0.00 0.00 0.00
20260506131515 58 16 15.6 20.9 0.00 0.00 0.00
20260506130515 59 15 16.5 21.7 0.00 0.00 0.00
20260506125535 59 8 15.6 19.1 0.00 0.00 0.00
20260506124515 58 13 18.2 24.3 0.00 0.00 0.00
20260506123535 58 7 16.5 23.5 0.00 0.00 0.00
20260506122555 59 5 15.6 25.2 0.00 0.00 0.00
20260506121515 59 18 14.8 20.0 0.00 0.00 0.00
20260506120515 58 18 15.6 20.0 0.00 0.00 0.00
20260506115535 59 12 16.5 22.6 0.00 0.00 0.00
20260506114515 58 25 19.1 23.5 0.00 0.00 0.00
20260506113515 59 18 17.4 21.7 0.00 0.00 0.00
20260506112515 59 10 15.6 20.9 0.00 0.00 0.00
20260506111516 59 10 15.6 19.1 0.00 0.00 0.00
20260506110515 59 6 13.9 19.1 0.00 0.00 0.00
20260506105515 59 28 16.5 21.7 0.00 0.00 0.00
20260506104515 58 37 16.5 20.9 0.00 0.00 0.00
20260506103515 58 26 15.6 20.0 0.00 0.00 0.00
20260506102515 59 19 15.6 20.9 0.00 0.00 0.00
20260506101535 58 27 15.6 20.0 0.00 0.00 0.00
20260506100515 58 23 15.6 19.1 0.00 0.00 0.00
20260506095515 58 28 15.6 20.0 0.00 0.00 0.00
20260506094515 58 15 15.6 20.9 0.00 0.00 0.00
20260506093515 58 15 16.5 20.0 0.00 0.00 0.00
20260506092515 58 24 14.8 20.0 0.00 0.00 0.00
20260506091515 59 18 13.9 18.2 0.00 0.00 0.00
20260506090515 58 17 16.5 20.9 0.00 0.00 0.00
20260506085515 59 15 14.8 18.2 0.00 0.00 0.00
20260506084515 58 16 14.8 19.1 0.00 0.00 0.00
20260506083515 57 25 15.6 21.7 0.00 0.00 0.00
20260506082515 58 12 13.9 17.4 0.00 0.00 0.00
20260506081515 58 9 13.0 17.4 0.00 0.00 0.00
20260506080515 57 14 14.8 17.4 0.00 0.00 0.00
20260506073515 55 8 13.0 15.6 0.00 0.00 0.00
20260506072515 54 14 13.9 18.2 0.00 0.00 0.00
20260506071515 54 11 13.0 15.6 0.00 0.00 0.00
20260506070555 53 9 13.0 17.4 0.00 0.00 0.00
20260506062515 53 13 13.9 17.4 0.00 0.00 0.00
20260506061515 55 13 14.8 20.0 0.00 0.00 0.00
20260506060515 62 9 12.2 16.5 0.00 0.00 0.00
20260506050515 52 352 5.2 8.7 0.00 0.00 0.00
20260506044515 50 0 7.0 11.3 0.00 0.00 0.00
20260506043636 49 1 7.8 11.3 0.00 0.00 0.00
20260506042515 49 4 8.7 13.0 0.00 0.00 0.00
20260506041515 49 4 12.2 15.6 0.00 0.00 0.00
20260506040535 49 359 11.3 14.8 0.00 0.00 0.00
20260506035515 49 353 8.7 13.0 0.00 0.00 0.00
20260506034515 49 350 9.6 13.9 0.00 0.00 0.00
20260506033515 49 354 9.6 14.8 0.00 0.00 0.00
20260506032515 49 0 11.3 15.6 0.00 0.00 0.00
20260506031515 49 355 8.7 13.0 0.00 0.00 0.00
20260506030515 49 357 10.4 14.8 0.00 0.00 0.00
20260506025515 49 1 12.2 15.6 0.00 0.00 0.00
20260506024515 49 2 13.9 17.4 0.00 0.00 0.00
20260506023515 49 359 12.2 16.5 0.00 0.00 0.00
20260506022515 49 359 11.3 16.5 0.00 0.00 0.00
20260506021515 49 358 10.4 13.9 0.00 0.00 0.00
20260506020515 49 1 10.4 14.8 0.00 0.00 0.00
20260506015515 49 359 10.4 14.8 0.00 0.00 0.00
20260506014515 49 355 9.6 13.9 0.00 0.00 0.00
20260506013515 49 356 10.4 13.9 0.00 0.00 0.00
20260506012515 49 355 9.6 13.9 0.00 0.00 0.00
20260506011515 50 2 11.3 15.6 0.00 0.00 0.00
20260506010515 50 357 9.6 13.0 0.00 0.00 0.00
20260506005515 50 352 9.6 13.0 0.00 0.00 0.00
20260506004535 50 353 8.7 13.9 0.00 0.00 0.00
20260506003515 50 352 7.8 13.9 0.00 0.00 0.00
20260506002515 50 0 9.6 13.0 0.00 0.00 0.00
20260506001515 50 2 10.4 14.8 0.00 0.00 0.00
20260506000515 50 354 10.4 13.9 0.00 0.00 0.00
20260505235515 50 360 9.6 14.8 0.00 0.00 0.00
20260505234535 50 0 9.6 13.9 0.00 0.00 0.00
20260505233515 50 1 11.3 15.6 0.00 0.00 0.00
20260505232515 50 1 11.3 14.8 0.00 0.00 0.00
20260505231515 50 1 11.3 14.8 0.00 0.00 0.00
20260505230515 50 2 10.4 13.9 0.00 0.00 0.00
20260505225515 50 3 11.3 15.6 0.00 0.00 0.00
20260505220515 50 353 3.5 7.0 0.00 0.00 0.00
20260505215515 50 358 4.3 7.8 0.00 0.00 0.00
20260505214515 50 356 4.3 8.7 0.00 0.00 0.00
20260505213515 50 358 0.9 7.0 0.00 0.00 0.00
20260505212515 50 360 3.5 7.8 0.00 0.00 0.00
20260505211515 50 358 7.0 10.4 0.00 0.00 0.00
20260505210515 50 3 7.8 10.4 0.00 0.00 0.00
20260505205515 50 4 6.1 11.3 0.00 0.00 0.00
20260505204515 50 6 10.4 13.0 0.00 0.00 0.00
20260505203515 50 2 9.6 12.2 0.00 0.00 0.00
20260505202515 50 2 10.4 13.0 0.00 0.00 0.00
20260505201515 50 2 11.3 14.8 0.00 0.00 0.00
20260505200515 50 1 11.3 15.6 0.00 0.00 0.00
20260505195515 50 1 12.2 17.4 0.00 0.00 0.00
20260505194516 50 1 12.2 17.4 0.00 0.00 0.00
20260505193535 51 2 12.2 15.6 0.00 0.00 0.00
20260505192515 51 3 11.3 16.5 0.00 0.00 0.00
20260505191535 51 359 11.3 15.6 0.00 0.00 0.00
20260505190515 51 5 13.9 17.4 0.00 0.00 0.00
20260505185515 51 4 13.0 15.6 0.00 0.00 0.00
20260505184515 51 6 14.8 18.2 0.00 0.00 0.00
20260505183515 51 10 13.0 16.5 0.00 0.00 0.00
20260505182515 52 3 12.2 15.6 0.00 0.00 0.00
20260505181515 52 11 13.9 18.2 0.00 0.00 0.00
20260505180515 52 6 12.2 18.2 0.00 0.00 0.00
20260505175515 53 7 13.0 17.4 0.00 0.00 0.00
20260505174515 53 9 13.0 16.5 0.00 0.00 0.00